Showing default

TIROS 10, 1430

Orbit data source: Space-Track

TIROS 10, 1430 is a payload satellite owned by ESSA (US) in SSO that was launched on Fri, 02 Jul 1965 UTC via a THOR DELTA C launch vehicle from the Air Force Eastern Test Range (AFETR). Payloads include a variety of satellites, spacecraft, and rockets equipped with specific instruments for various scientific and technological missions. These include communications satellites like Starlink; space stations such as the ISS; scientific satellites like the Hubble; Earth observation satellites from companies like Planet Labs, Umbra, and HawkEye 360; GPS; miniature CubeSats for education and research; and military/defense satellites.

Loading next visibility...
TIROS 10 details
Identifier
1430, 1965-051A
Orbit
SSO
Last TLE update12 hours ago
Origin
Flag of USESSA (US)
ManufacturerRCA/East Windsor
MissionNon-operational Civil Weather
Bus & MotorTIROS I, Unknown motor
Mass127 kg wet, 127 kg dry
Launch date (UTC)
1965-07-02 (60 years ago)
Launch vehicle
THOR DELTA C
Launch site
Air Force Eastern Test Range (AFETR)
Object type
Payload
Rocket body
Debris
Shape & HBRCyl, 1.07 m
Radar Cross Section0.920 m², Medium (>0.1 m² and < 1m²)

Expand to show TLE details & history

TLE from 12 hours ago
0 TIROS 10
1 01430U 65051A   25013.89878398  .00000408  00000-0  13747-3 0  9993
2 01430  98.4533 132.1943 0055281 197.6268 162.3004 14.41259838121101
Epoch: 2025-01-13T21:34Z
Definitive object data (Epoch: 2025-01-13T21:34:14.935Z)
Latitude-0.00005°
Longitude55.01886°
Altitude794.881 km
Speed7.436 km/s
True Right ascension08h 48m 46s
True Declination0° 00' 00"
Sunlit
Object was in full shadow at TLE epoch
Visualization TLE readout
Latitude18.96032°
Longitude52.59201°
Altitude796.173 km
Speed7.436 km/s
Apparent Right ascension06h 12m 49s
Apparent Declination-33° 08' 05"
Sunlit
Object is in full shadow
Visualization observer readout
Local Sidereal Time09:55:18
Azimuth223.722° SW
Elevation0.684°
Doppler factor1
Orbital elements
Apogee altitude790.87 km
Perigee altitude712.044 km
Semi-major axis7,129.594 km
Eccentricity0.0055281
Inclination98.4533°
RAAN132.1943°
Arg. of periapsis197.6268°
True anomaly162.49173°
Mean anomaly162.3004°
Eccentric anomaly162.39619°
Mean motion3.60534 °/min
BSTAR0.00013747
Orbital period99.85 mins
Loading maneuver chart data...
Loading historical data...
Loading historical data...
Loading historical data...
Loading historical data...
Loading historical data...
Loading historical data...
Loading historical data...
Other satellites on launch #51 in the year 1965 (1965-07-02 UTC)

TIROS 10 Visibility forecast

Observer location: undefined°, undefined

Span
Click to sort rows by Start time (UTC) header in descending order
Start Az.
Max El. time (UTC)
Max El. Az.
Max El.
End time (UTC)
End Az.
7 mins2025-01-14 19:49:23.857Z39.088° NE2025-01-14 19:53:23.857Z99.43° ESE25.306°2025-01-14 19:56:23.857Z147.414° SSE
6 mins2025-01-14 21:29:23.857Z338.194° N2025-01-14 21:32:23.857Z281.799° WNW26.281°2025-01-14 21:35:23.857Z237.27° WSW
7 mins2025-01-15 07:02:23.857Z126.588° SE2025-01-15 07:05:23.857Z75.993° E31.288°2025-01-15 07:09:23.857Z8.513° NNE
7 mins2025-01-15 08:41:23.857Z219.579° SW2025-01-15 08:44:23.857Z264.248° W23.288°2025-01-15 08:48:23.857Z318.427° NNW
|